TimePST,TemperatureF,Dew PointF,Humidity,Sea Level PressureIn,VisibilityMPH,Wind Direction,Wind SpeedMPH,Gust SpeedMPH,PrecipitationIn,Events,Conditions,WindDirDegrees,DateUTC
12:55 AM,42.1,37.9,85,29.95,10.0,ESE,6.9,-,0.01,Rain,Light Rain,110,2012-12-25 08:55:00
1:31 AM,42.8,37.4,81,29.92,6.0,ESE,8.1,-,0.02,Rain,Light Rain,110,2012-12-25 09:31:00
1:55 AM,42.1,37.9,85,29.90,5.0,ESE,8.1,-,0.05,Rain,Light Rain,110,2012-12-25 09:55:00
2:55 AM,39.9,36.0,86,29.86,6.0,ESE,12.7,20.7,0.18,Rain,Rain,120,2012-12-25 10:55:00
3:55 AM,39.0,36.0,89,29.81,8.0,ESE,13.8,-,0.10,Rain,Light Rain,120,2012-12-25 11:55:00
4:55 AM,39.0,35.1,86,29.76,4.0,SE,12.7,24.2,0.10,Rain,Rain,130,2012-12-25 12:55:00
5:55 AM,39.0,35.1,86,29.70,5.0,ESE,18.4,25.3,0.14,Rain,Rain,110,2012-12-25 13:55:00
6:55 AM,39.0,35.1,86,29.65,10.0,ESE,21.9,28.8,0.11,Rain,Light Rain,110,2012-12-25 14:55:00
7:55 AM,39.0,35.1,86,29.63,8.0,ESE,17.3,23.0,0.08,Rain,Light Rain,110,2012-12-25 15:55:00
8:55 AM,39.0,35.1,86,29.62,10.0,ESE,18.4,25.3,0.09,Rain,Light Rain,110,2012-12-25 16:55:00
9:45 AM,39.2,35.6,87,29.61,10.0,ESE,12.7,-,0.01,,Overcast,110,2012-12-25 17:45:00
9:55 AM,39.9,36.0,86,29.61,10.0,East,16.1,-,0.01,,Overcast,100,2012-12-25 17:55:00
10:55 AM,42.1,37.0,82,29.61,10.0,ESE,11.5,-,N/A,,Overcast,110,2012-12-25 18:55:00
11:55 AM,42.1,37.9,85,29.60,10.0,ESE,12.7,-,0.01,Rain,Light Rain,110,2012-12-25 19:55:00
12:55 PM,44.1,41.0,89,29.60,9.0,ESE,13.8,-,0.02,Rain,Light Rain,120,2012-12-25 20:55:00
1:55 PM,44.1,39.9,85,29.58,10.0,ESE,13.8,-,0.01,,Overcast,120,2012-12-25 21:55:00
2:55 PM,44.1,39.9,85,29.58,10.0,ESE,10.4,-,0.00,,Overcast,110,2012-12-25 22:55:00
3:55 PM,44.1,39.9,85,29.58,4.0,ESE,9.2,-,0.01,Rain,Rain,120,2012-12-25 23:55:00
4:55 PM,43.0,39.9,89,29.60,10.0,ESE,10.4,-,0.03,Rain,Light Rain,120,2012-12-26 00:55:00
5:55 PM,43.0,39.9,89,29.61,8.0,ESE,3.5,-,0.02,Rain,Light Rain,110,2012-12-26 01:55:00
6:32 PM,42.8,39.2,87,29.61,10.0,ESE,5.8,-,0.01,,Mostly Cloudy,110,2012-12-26 02:32:00
6:55 PM,42.1,39.0,89,29.61,10.0,SE,6.9,-,0.01,,Mostly Cloudy,130,2012-12-26 02:55:00
7:41 PM,42.8,39.2,87,29.61,10.0,SE,9.2,-,0.00,Rain,Light Rain,130,2012-12-26 03:41:00
7:55 PM,43.0,39.9,89,29.62,9.0,ESE,9.2,-,0.00,Rain,Light Rain,120,2012-12-26 03:55:00
8:05 PM,42.8,39.2,87,29.62,10.0,SE,9.2,-,0.00,,Overcast,130,2012-12-26 04:05:00
8:55 PM,43.0,39.0,86,29.62,10.0,ESE,6.9,-,0.00,,Overcast,120,2012-12-26 04:55:00
9:55 PM,42.1,39.0,89,29.65,10.0,East,3.5,-,N/A,,Mostly Cloudy,90,2012-12-26 05:55:00
10:22 PM,42.8,39.2,87,29.65,10.0,Calm,Calm,-,N/A,,Mostly Cloudy,0,2012-12-26 06:22:00
10:46 PM,42.8,39.2,87,29.66,10.0,East,6.9,-,N/A,,Overcast,100,2012-12-26 06:46:00
10:55 PM,42.8,39.2,87,29.66,10.0,East,5.8,-,N/A,,Overcast,100,2012-12-26 06:55:00
11:55 PM,42.1,39.0,89,29.67,10.0,East,5.8,-,N/A,,Overcast,80,2012-12-26 07:55:00